Regional Weather Roundup
Issued by NWS Jackson, KY

Home | Current Version | Previous Version | Graphics & Text | Print | Product List | Glossary On
Versions: 1 2 3 4 5 6 7 8 9 10 11 12 13 14 15 16 17 18 19 20 21 22 23 24 25 26 27 28 29 30 31 32 33 34 35 36 37 38 39 40 41 42 43 44 45 46 47 48 49 50
000
ASUS43 KJKL 030419
RWRJKL

EAST KENTUCKY HOURLY WEATHER ROUNDUP
NATIONAL WEATHER SERVICE JACKSON KY
1200 AM EDT WED SEP 03 2014

NOTE: "FAIR" INDICATES FEW OR NO CLOUDS BELOW 12,000 FEET WITH
NO SIGNIFICANT WEATHER AND/OR OBSTRUCTIONS TO VISIBILITY.

* THESE REPORTS ARE NOT UNDER NWS QUALITY CONTROL AND MAY NOT
  REPORT WEATHER SUCH AS PRECIPITATION AND FOG.

KYZ079-080-083-085-087-088-110-112-115-119-120-030500
...EASTERN KENTUCKY...

CITY           SKY/WX    TMP DP  RH WIND       PRES   REMARKS
JACKSON        CLOUDY    69  68  96 CALM      30.05S FOG
LONDON         CLOUDY    70  67  90 CALM      30.05F
SOMERSET*      CLOUDY    70  70 100 CALM      30.05S
MONTICELLO*    CLOUDY    71  70  97 CALM      30.05S
MIDDLESBORO*   LGT RAIN  69  69  99 CALM      30.07F
HARLAN APT*    CLOUDY    68  68 100 MISG      30.09R
HAZARD APT*    CLEAR     70  70 100 CALM      30.06R
BLACK MTN*       N/A     61  61 100 S6          N/A
PIKEVILLE APT* CLEAR     68  66  94 CALM      30.06S
BIG SANDY*     CLOUDY    69  69  97 CALM      30.04F
MOREHEAD APT*  MOCLDY    68  68 100 CALM      30.04F
ASHLAND*       CLOUDY    70  64  83 CALM      29.99
$$

KYZ035-036-041-042-044-050-067-078-099-030500
...CENTRAL KENTUCKY...

CITY           SKY/WX    TMP DP  RH WIND       PRES   REMARKS
MT STERLING*   CLOUDY    68  68 100 SW5       30.04S FOG
FLEMING/MASON* CLOUDY    70  70 100 SW5       30.03S FOG
DANVILLE*      CLOUDY    70  70 100 CALM      30.05S
RICHMOND*      CLOUDY    70  66  88 CALM      30.03S
LEXINGTON      CLOUDY    72  68  87 S3        30.03S
FRANKFORT      MOCLDY    69  68  96 S3        30.01F
$$

KYZ091>093-OHZ055-061-077-WVZ005-015-034-035-042-030500
...SOUTHERN OHIO/WEST VIRGINIA...

CITY           SKY/WX    TMP DP  RH WIND       PRES   REMARKS
COVINGTON      MOCLDY    68  66  94 CALM      30.02R
COLUMBUS       MOCLDY    70  65  84 SE3       29.99S
DAYTON         PTCLDY    68  65  90 W5        30.02R
WILMINGTON     FOG       65  64  97 SW3       30.01F VSB 1/4
HUNTINGTON     MOCLDY    69  69 100 SW3       30.01R
CHARLESTON     CLOUDY    71  71 100 CALM      30.02R
PINEVILLE*     CLOUDY    70  70 100 MISG      30.13S
BECKLEY        CLOUDY    67  65  93 SW6       30.10F
BLUEFIELD      CLOUDY    67  63  87 VRB3      30.14F
$$

VAZ002-007-008-TNZ017-027-036-066-071-030500
...SOUTHWEST VIRGINIA/EAST TENNESSEE...

CITY           SKY/WX    TMP DP  RH WIND       PRES   REMARKS
WISE*          CLOUDY    64  64 100 SW5       30.15R
JONESVILLE*      N/A     68  68 100 CALM      30.11S
ABINGDON*      LGT RAIN  68  66  95 CALM      30.13F
BRISTOL        LGT RAIN  69  65  86 SW3       30.11S
KNOXVILLE      LGT RAIN  70  69  97 E5        30.04F
OAK RIDGE      LGT RAIN  72  70  93 S5        30.11R
CROSSVILLE     CLOUDY    70  66  87 CALM      30.11R
NASHVILLE      CLOUDY    73  72  94 SW8       30.03S
$$

...KEY TO REMARKS...
VSB - VISIBILITY IN MILES
WCI - WIND CHILL INDEX
HX  - HEAT INDEX

$$


USA.gov is the U.S. government's official web portal to all federal, state and local government web resources and services.